Location: Unspecified
(52.1971°N, 0.0000°E)
Time: 10:33:57
(UTC+00:00)

YUBILEINY - Pass Details

Date: 14 December 2019
Orbit: 1478 x 1509 km, 82.5° (Epoch: 23 January)

Event Time Altitude Azimuth Distance (km) Brightness Sun altitude
Rises 06:11:10 0° 347° (NNW) 4,614 ? -15.7°
Reaches altitude 10° 06:14:32 10° 358° (N) 3,630 ? -15.2°
Maximum altitude 06:22:08 32° 59° (ENE) 2,330 ? -14.1°
Drops below altitude 10° 06:29:42 10° 120° (ESE) 3,621 ? -13.0°
Sets 06:33:01 0° 130° (SE) 4,601 ? -12.5°
